Вернуться в каталог

THORAD DELTA 1 DEB

АктивенSSO
NORAD 14475·DEBRIS·🇺🇸 United States

Запущен Nov 15, 1974 с Vandenberg Space Force Base

Loading…

Ближайшие Пролёты (ближайшие 24 часа)

TLE

СвежийSource: Space-Track

Эпоха: Sep 14, 2026, 08:46 UTC

1 14475U 74089ER  26257.36534878  .00000253  00000-0  16441-2 0  9993
2 14475 101.0838  45.1891 0125024   7.3345  20.9720 12.60280676993243

Отслеживайте THORAD DELTA 1 DEB в реальном времени с AllMySat

Download on the App Store